Regional Weather Roundup
Issued by NWS

Home | Current Version | Previous Version | Graphics & Text | Print | Product List | Glossary On
Versions: 1 2 3 4 5 6 7 8 9 10 11 12 13 14 15 16 17 18 19 20 21 22 23 24 25 26 27 28 29 30 31 32 33 34 35 36 37 38 39 40 41 42 43 44 45 46 47 48 49
000
ASUS45 KSLC 180110
RWRUT

UTAH REGIONAL WEATHER ROUNDUP
NATIONAL WEATHER SERVICE SALT LAKE CITY UT
700 PM MDT WED SEP 17 2014

UTZ001>011-023>025-180200-

NORTHERN UTAH

CITY           SKY/WX    TMP DP  RH WIND       PRES   REMARKS
HILL AFB       CLEAR     88  42  20 E2        29.92F
LOGAN          CLEAR     88  47  24 CALM      29.89F
OGDEN          CLEAR     89  41  18 N3        29.89S
PROVO AIRPORT  PTCLDY    84  46  26 SE7       29.91F
SALT LAKE CITY PTCLDY    88  42  20 N9        29.86S
VERNAL         MOCLDY    76  40  27 N7        30.02S
WENDOVER       MOCLDY    90  36  14 W5G36     29.84F
HEBER CITY     PTCLDY    81  43  26 CALM      29.99S
WEST JORDAN    CLEAR     84  43  23 N6        29.90S

$$

UTZ012>022-026-027-180200-

SOUTHERN UTAH

CITY           SKY/WX    TMP DP  RH WIND       PRES   REMARKS
BRYCE CANYON   MOCLDY    68  44  42 S5        30.20S
CEDAR CITY     MOCLDY    68  53  58 SE8       30.03F
MILFORD        MOCLDY    83  47  28 E16G25    29.96R
MOAB/CYNLANDS  CLEAR     89  35  14 CALM      29.91R
PRICE          PTCLDY    84  34  16 S5        30.04S
ST GEORGE      PTCLDY    86  57  37 SE7       29.84S
KANAB            N/A     82  46  28 E8        30.01S

$$

REGIONAL REPORTS     COLORADO/ARIZONA

CITY           SKY/WX    TMP DP  RH WIND       PRES   REMARKS
CRAIG, CO      CLEAR     70  45  40 W3        30.08R
GRAND JUNCTION CLEAR     81  42  25 NW7       29.94S
RIFLE          CLEAR     80  42  25 CALM      29.99S
MONTROSE       CLEAR     82  42  24 CALM      30.03S
CORTEZ         CLEAR     63  54  72 NE12      30.12S
PAGE, AZ       PTCLDY    81  52  36 S3        29.95S
GRAND CANYON   CLEAR     71  47  42 E8        30.14S
KINGMAN        CLEAR     84  58  40 SE5       29.89F
FLAGSTAFF      CLOUDY    64  55  72 SE3       30.17R

$$

REGIONAL REPORTS    NEVADA/IDAHO/WYOMING

CITY           SKY/WX    TMP DP  RH WIND       PRES   REMARKS
LAS VEGAS, NV    N/A     96  53  23 S8        29.72F HX  93
ELY            MOCLDY    79  38  22 S17G29    30.03R
ELKO           LGT RAIN  76  49  38 W6G17     29.90R
POCATELLO, ID  PTCLDY    78  53  41 NW8       29.87S
BURLEY         PTCLDY    85  47  26 N5        29.80F
EVANSTON, WY   PTCLDY    71  39  31 SE10      30.13S
ROCK SPRINGS   PTCLDY    78  34  20 W8        30.11S

$$



USA.gov is the U.S. government's official web portal to all federal, state and local government web resources and services.